Hlavní strana
METAR-TAF:

METAR-TAF

Letiště :

Cairo Regional Airport

Cairo, Illinois, Spojené státy americké

zeměpisná šířka: 37-03-52N, zeměpisná délka: 089-13-10W, výška: 98 m

Aktuální stav počasí

Zpráva byla vytvořena před 26 minutami, v 18:15 UTC
Severní vítr 9 kt
Teplota 5°C
Vlhkost vzduchu 81%
Tlak 1022 hPa
Viditelnost: 11.3 km
Zataženo ve výšce 6500 ft

METAR: KCIR 181815Z AUTO 35009KT 7SM OVC065 05/02 A3019 RMK AO2 T00530022

Čas: 12:41 (18:41 UTC)


TAF: chybějící

Stav a předpovědi počasí z více než 4 000 letišť (zprávy METAR a TAF).

Červené a žluté tečky na mapě představují dostupné meteorologické stanice.

Když kurzor umístíte na tečku, zobrazí se název stanice.

Pak kliknutím zobrazíte stav a předpověď počasí.

Chcete-li změnit mapu, kliknutím na zelené tlačítko se znaménkem +mapu přiblížíte, kliknutím na zelené tlačítko se znaménkem – mapu oddálíte a kliknutím na zelené šipky přejdete na sousední mapy.


METAR-TAF: